Вернуться в каталог

DELTA 1 DEB

АктивенLEO
NORAD 13532·DEBRIS·🇺🇸 United States

Запущен Jul 29, 1976 с Vandenberg Space Force Base

Loading…

Ближайшие Пролёты (ближайшие 24 часа)

TLE

СвежийSource: Space-Track

Эпоха: Sep 14, 2026, 06:58 UTC

1 13532U 76077EE  26257.29094698 -.00000145  00000-0 -12428-2 0  9991
2 13532 102.2633 185.7396 0283745 209.4914 307.2595 11.94111820972287

Отслеживайте DELTA 1 DEB в реальном времени с AllMySat

Download on the App Store